• In Italy
  • List of Countries
  • For 7 days
  • Water Temperature
  • Satellite Maps
  • Weather Map
  • Weather Widgets
  • user-avatar
    Login

    Hourly Weather Bangalore

    Today, 20 September, Thursday

    Time Temperature Precipitation Wind Pressure Humidity
    00:00 +22°C° 0 mm 3 mps 681 mmHg 78%
    01:00 +22°C° 0 mm 3 mps 680 mmHg 81%
    02:00 +21°C° 0 mm 3 mps 680 mmHg 84%
    03:00 +21°C° 0 mm 3 mps 680 mmHg 86%
    04:00 +20°C° 0 mm 3 mps 680 mmHg 87%
    05:00 +20°C° 0 mm 3 mps 680 mmHg 89%
    06:00 +21°C° 0 mm 3 mps 680 mmHg 84%
    07:00 +22°C° 0 mm 4 mps 681 mmHg 80%
    08:00 +23°C° 0 mm 4 mps 681 mmHg 76%
    09:00 +26°C° 0 mm 4 mps 681 mmHg 69%
    10:00 +27°C° 0 mm 4 mps 681 mmHg 63%
    11:00 +29°C° 0 mm 5 mps 681 mmHg 56%
    12:00 +29°C° 0.9 mm 4 mps 681 mmHg 56%
    13:00 +29°C° 0.9 mm 4 mps 680 mmHg 57%
    14:00 +29°C° 0.9 mm 4 mps 680 mmHg 57%
    15:00 +28°C° 1.7 mm 3 mps 679 mmHg 61%
    16:00 +27°C° 1.7 mm 3 mps 679 mmHg 65%
    17:00 +27°C° 1.7 mm 3 mps 679 mmHg 69%
    18:00 +26°C° 1.1 mm 3 mps 680 mmHg 72%
    19:00 +25°C° 1.1 mm 3 mps 680 mmHg 74%
    20:00 +25°C° 1.1 mm 3 mps 680 mmHg 77%
    21:00 +24°C° 0.8 mm 3 mps 680 mmHg 79%
    22:00 +23°C° 0.8 mm 4 mps 680 mmHg 81%
    23:00 +22°C° 0.8 mm 4 mps 680 mmHg 83%

    Tomorrow, 21 September, Friday

    Time Temperature Precipitation Wind Pressure Humidity
    00:00 +22°C° 0.3 mm 4 mps 680 mmHg 85%
    01:00 +22°C° 0.3 mm 4 mps 679 mmHg 87%
    02:00 +21°C° 0.3 mm 4 mps 679 mmHg 88%
    03:00 +21°C° 0.1 mm 4 mps 679 mmHg 89%
    04:00 +21°C° 0.1 mm 4 mps 679 mmHg 89%
    05:00 +21°C° 0.1 mm 5 mps 679 mmHg 89%
    06:00 +21°C° 0 mm 5 mps 679 mmHg 88%
    07:00 +22°C° 0 mm 5 mps 680 mmHg 86%
    08:00 +22°C° 0 mm 5 mps 680 mmHg 84%
    09:00 +23°C° 0.2 mm 5 mps 681 mmHg 80%
    10:00 +25°C° 0.2 mm 5 mps 681 mmHg 77%
    11:00 +26°C° 0.2 mm 6 mps 681 mmHg 73%
    12:00 +26°C° 0.4 mm 6 mps 681 mmHg 70%
    13:00 +26°C° 0.4 mm 6 mps 680 mmHg 68%
    14:00 +27°C° 0.4 mm 6 mps 680 mmHg 65%
    15:00 +26°C° 0.2 mm 5 mps 680 mmHg 67%
    16:00 +25°C° 0.2 mm 5 mps 680 mmHg 68%
    17:00 +25°C° 0.2 mm 4 mps 680 mmHg 69%
    18:00 +23°C° 0 mm 4 mps 680 mmHg 70%
    19:00 +22°C° 0 mm 3 mps 681 mmHg 72%
    20:00 +22°C° 0 mm 3 mps 681 mmHg 73%
    21:00 +21°C° 0 mm 3 mps 681 mmHg 76%
    22:00 +21°C° 0 mm 3 mps 681 mmHg 79%
    23:00 +20°C° 0 mm 3 mps 681 mmHg 82%

    Day after tomorrow, 22 September, Saturday

    Time Temperature Precipitation Wind Pressure Humidity
    00:00 +20°C° 0 mm 3 mps 681 mmHg 84%
    01:00 +20°C° 0 mm 3 mps 681 mmHg 85%
    02:00 +19°C° 0 mm 3 mps 680 mmHg 87%
    03:00 +19°C° 0 mm 3 mps 681 mmHg 87%
    04:00 +19°C° 0 mm 3 mps 681 mmHg 88%
    05:00 +19°C° 0 mm 3 mps 681 mmHg 88%
    06:00 +20°C° 0 mm 4 mps 682 mmHg 85%
    07:00 +21°C° 0 mm 4 mps 682 mmHg 81%
    08:00 +22°C° 0 mm 5 mps 683 mmHg 78%
    09:00 +25°C° 0 mm 5 mps 683 mmHg 71%
    10:00 +27°C° 0 mm 5 mps 683 mmHg 63%
    11:00 +28°C° 0 mm 5 mps 683 mmHg 56%
    12:00 +29°C° 0 mm 5 mps 683 mmHg 52%
    13:00 +30°C° 0 mm 5 mps 682 mmHg 49%
    14:00 +30°C° 0 mm 5 mps 682 mmHg 45%
    15:00 +30°C° 0 mm 4 mps 682 mmHg 47%
    16:00 +29°C° 0 mm 3 mps 682 mmHg 50%
    17:00 +29°C° 0 mm 3 mps 682 mmHg 52%
    18:00 +27°C° 0.2 mm 3 mps 682 mmHg 57%
    19:00 +26°C° 0.2 mm 2 mps 683 mmHg 62%
    20:00 +25°C° 0.2 mm 2 mps 683 mmHg 66%
    21:00 +24°C° 0.2 mm 2 mps 684 mmHg 70%
    22:00 +24°C° 0.2 mm 2 mps 684 mmHg 73%
    23:00 +24°C° 0.2 mm 2 mps 684 mmHg 77%

    23 September, Sunday

    Time Temperature Precipitation Wind Pressure Humidity
    00:00 +23°C° 0 mm 2 mps 683 mmHg 80%
    01:00 +21°C° 0 mm 2 mps 683 mmHg 82%
    02:00 +22°C° 0 mm 1 mps 682 mmHg 85%
    03:00 +22°C° 0 mm 1 mps 682 mmHg 86%
    04:00 +21°C° 0 mm 1 mps 682 mmHg 86%
    05:00 +21°C° 0 mm 1 mps 683 mmHg 87%
    06:00 +22°C° 0 mm 1 mps 683 mmHg 83%
    07:00 +23°C° 0 mm 1 mps 684 mmHg 79%
    08:00 +24°C° 0 mm 1 mps 685 mmHg 74%
    09:00 +25°C° 0 mm 1 mps 685 mmHg 69%
    10:00 +27°C° 0 mm 1 mps 685 mmHg 63%
    11:00 +28°C° 0 mm 1 mps 685 mmHg 57%
    12:00 +29°C° 0 mm 1 mps 684 mmHg 55%
    13:00 +29°C° 0 mm 2 mps 684 mmHg 52%
    14:00 +29°C° 0 mm 2 mps 683 mmHg 50%
    15:00 +29°C° 0 mm 1 mps 683 mmHg 53%
    16:00 +29°C° 0 mm 1 mps 683 mmHg 55%
    17:00 +28°C° 0 mm 1 mps 683 mmHg 58%
    18:00 +27°C° 0 mm 1 mps 683 mmHg 60%
    19:00 +27°C° 0 mm 1 mps 684 mmHg 62%
    20:00 +26°C° 0 mm 1 mps 684 mmHg 63%
    21:00 +25°C° 0 mm 1 mps 684 mmHg 66%
    22:00 +25°C° 0 mm 1 mps 684 mmHg 68%
    23:00 +24°C° 0 mm 1 mps 684 mmHg 70%

    24 September, Monday

    Time Temperature Precipitation Wind Pressure Humidity
    00:00 +24°C° 0 mm 1 mps 683 mmHg 73%
    01:00 +24°C° 0 mm 1 mps 683 mmHg 75%
    02:00 +23°C° 0 mm 1 mps 682 mmHg 78%
    03:00 +23°C° 0 mm 1 mps 682 mmHg 79%
    04:00 +21°C° 0 mm 0 mps 683 mmHg 81%
    05:00 +20°C° 0 mm 0 mps 683 mmHg 82%
    06:00 +22°C° 0 mm 0 mps 683 mmHg 78%
    07:00 +23°C° 0 mm 0 mps 684 mmHg 74%
    08:00 +26°C° 0 mm 1 mps 685 mmHg 70%
    09:00 +27°C° 0 mm 1 mps 685 mmHg 65%
    10:00 +29°C° 0 mm 1 mps 685 mmHg 60%
    11:00 +30°C° 0 mm 1 mps 685 mmHg 55%
    12:00 +30°C° 0.4 mm 1 mps 684 mmHg 54%
    13:00 +31°C° 0.4 mm 1 mps 683 mmHg 53%
    14:00 +31°C° 0.4 mm 1 mps 682 mmHg 51%
    15:00 +30°C° 1.2 mm 1 mps 682 mmHg 55%
    16:00 +29°C° 1.2 mm 1 mps 682 mmHg 59%
    17:00 +28°C° 1.2 mm 1 mps 682 mmHg 64%
    18:00 +27°C° 1.2 mm 2 mps 683 mmHg 68%
    19:00 +26°C° 1.2 mm 2 mps 683 mmHg 73%
    20:00 +25°C° 1.2 mm 2 mps 683 mmHg 77%
    21:00 +25°C° 0.7 mm 2 mps 683 mmHg 78%
    22:00 +25°C° 0.7 mm 2 mps 683 mmHg 79%
    23:00 +24°C° 0.7 mm 2 mps 684 mmHg 80%

    25 September, Tuesday

    Time Temperature Precipitation Wind Pressure Humidity
    00:00 +24°C° 0.2 mm 1 mps 683 mmHg 81%
    01:00 +24°C° 0.2 mm 1 mps 683 mmHg 82%
    02:00 +23°C° 0.2 mm 1 mps 682 mmHg 83%
    03:00 +23°C° 0.1 mm 1 mps 682 mmHg 83%
    04:00 +23°C° 0.1 mm 1 mps 682 mmHg 84%
    05:00 +23°C° 0.1 mm 1 mps 682 mmHg 85%
    06:00 +24°C° 0 mm 1 mps 683 mmHg 80%
    07:00 +25°C° 0 mm 1 mps 684 mmHg 76%
    08:00 +26°C° 0 mm 1 mps 684 mmHg 71%
    09:00 +27°C° 0.1 mm 1 mps 684 mmHg 66%
    10:00 +28°C° 0.1 mm 2 mps 684 mmHg 61%
    11:00 +30°C° 0.1 mm 2 mps 684 mmHg 56%
    12:00 +30°C° 1.1 mm 2 mps 683 mmHg 56%
    13:00 +30°C° 1.1 mm 2 mps 682 mmHg 55%
    14:00 +30°C° 1.1 mm 2 mps 682 mmHg 55%
    15:00 +29°C° 2.2 mm 2 mps 682 mmHg 60%
    16:00 +28°C° 2.2 mm 2 mps 682 mmHg 66%
    17:00 +27°C° 2.2 mm 2 mps 682 mmHg 71%
    18:00 +27°C° 1.7 mm 2 mps 682 mmHg 74%
    19:00 +26°C° 1.7 mm 2 mps 683 mmHg 76%
    20:00 +25°C° 1.7 mm 2 mps 683 mmHg 79%
    21:00 +25°C° 0.6 mm 2 mps 683 mmHg 80%
    22:00 +24°C° 0.6 mm 2 mps 683 mmHg 82%
    23:00 +24°C° 0.6 mm 2 mps 683 mmHg 83%
    Show more